STARLINK-6078 (56106 NORAD) Tracking and Keplerian Element Data

This shows tracking and keplerian element data for the satellite.

Feedback or suggestion? Click here.




ElementValue
Catalog56106
NameSTARLINK-6078
Epoch Orbit652
Epoch Day127.25001157
Epoch Year2023
RAAN37.7802
Inclination43.0014
Eccentricity0.0001487
Argument of Perigee277.2345
Mean Anonmoly113.134
Mean Motion15.29528128
Decay Rate-0.00900611
L11 56106U 23046P 23127.25001157 -.00900611 00000+0 -33612-1 0 9993
L22 56106 43.0014 37.7802 0001487 277.2345 113.1340 15.29528128 6528



Live tracking and technical data element details for STARLINK-6078 (NORAD 56106). STARLINK-6078 can be tracked NOW for your location showing map with azimuth and elevation plus other details from your city location.







IsCatalogInMostPopularTable: catalog: 56106, numindb: -1

Insert: records affected: 1


GetName: 56106 STARLINK-6078

Hit Count: inserted at: Sun, 04 Jun 2023 23:21:20 GMT